GFSMW_sfc_30mbdewp_024.txt.gz
Dewpoint
39 41 42 44 46 49 50 51 50 48 46 45 41 42 43 44 43 44 46 44 45 43 44 44 44 44 44 45 46 46 45 45 47 47 46 46 47 48 46 45 42 41 41
38 41 43 44 43 43 42 42 42 43 43 43 42 43 43 43 44 44 42 43 43 43 43 43 42 43 43 43 44 44 45 44 45 44 44 41 42 44 43 45 43 42 41
35 38 42 44 44 44 43 42 42 43 44 45 42 42 42 43 42 43 43 44 45 44 43 44 43 42 42 42 42 43 42 43 44 44 43 40 39 41 42 43 45 46 46
34 37 40 43 44 44 44 42 42 42 43 44 43 43 43 42 43 43 42 43 42 41 38 37 39 40 43 42 43 44 45 44 42 43 41 41 41 41 39 41 41 44 45
36 37 39 42 44 46 45 43 41 40 43 43 44 44 43 43 42 41 41 39 40 39 38 37 38 41 42 42 45 43 41 41 40 39 39 38 37 39 37 36 37 37 38
36 37 38 41 43 44 44 43 41 41 42 41 42 41 41 41 40 41 40 40 39 37 37 37 39 40 42 43 42 41 40 39 39 38 38 37 35 35 34 33 33 34 36
36 36 37 38 39 40 42 42 43 42 42 42 42 42 43 43 41 40 40 38 36 36 36 37 39 42 42 42 41 40 40 40 38 36 36 37 36 35 34 34 34 33 34
36 36 36 37 38 40 40 41 42 41 40 42 44 43 42 41 40 39 37 36 36 36 37 41 41 41 41 41 40 39 40 39 39 37 36 36 36 36 35 32 32 30 28
35 35 36 37 38 38 39 41 41 39 39 40 41 42 41 40 38 37 36 36 35 35 37 38 40 38 37 39 39 37 37 38 39 39 38 38 37 36 35 32 30 30 27
34 35 35 36 38 39 40 40 38 37 38 38 38 36 36 36 36 35 35 35 36 36 36 38 38 38 39 38 38 37 38 38 37 36 37 37 37 38 38 36 34 32 29
34 34 35 38 38 39 39 38 36 35 35 35 34 33 33 34 35 35 37 39 37 36 35 38 40 39 39 37 37 35 34 32 33 33 32 32 32 31 31 30 28 29 32
34 35 36 37 37 37 37 36 34 34 34 32 30 31 32 37 36 36 35 36 38 35 35 34 36 38 37 36 35 32 30 30 29 27 27 26 25 24 25 24 23 23 23
33 34 35 36 35 35 34 32 33 33 31 29 28 29 31 34 32 33 35 34 33 31 30 27 26 26 25 25 23 21 22 22 22 22 22 23 23 23 23 24 23 23 22
33 34 35 35 35 33 30 29 31 30 29 27 28 29 30 32 31 32 33 32 30 27 24 23 22 22 21 21 21 22 23 22 21 21 22 22 22 22 22 22 23 21 21
35 36 36 35 32 29 27 29 31 28 29 26 27 28 29 30 30 32 31 29 27 22 22 21 22 22 21 20 22 22 22 21 21 20 20 21 22 23 23 18 19 20 19
37 35 35 32 28 27 27 29 29 27 27 26 25 26 29 29 29 29 29 26 21 21 21 22 22 22 20 23 23 23 22 22 22 20 20 22 23 21 22 22 24 22 20
36 35 33 30 27 27 25 24 28 27 26 26 26 26 31 29 27 26 25 20 21 21 21 21 22 22 24 23 25 24 23 22 21 21 21 21 20 22 21 22 23 27 26
34 33 30 27 26 23 23 25 27 28 28 27 29 25 30 28 27 27 23 21 21 21 21 22 23 24 23 26 25 25 24 22 21 21 19 19 21 22 23 23 24 25 25
32 28 26 26 25 25 24 23 22 22 22 24 30 32 28 26 28 25 21 21 21 21 22 22 25 25 24 25 26 28 24 23 21 20 21 22 20 21 22 25 24 26 24
25 24 24 23 25 24 24 22 21 20 21 27 30 29 27 25 26 29 26 22 22 21 27 27 27 27 25 27 27 25 27 24 22 21 21 22 22 27 26 26 25 24 24
21 19 19 20 21 21 21 19 18 17 20 25 28 31 35 36 35 33 25 23 23 23 27 28 28 27 26 26 24 25 25 24 22 21 20 21 25 27 26 24 24 23 25
15 14 15 17 19 19 18 17 17 19 23 27 29 30 33 34 33 29 25 24 22 24 25 24 24 25 24 23 22 25 20 18 21 21 22 25 21 26 24 24 25 26 25
15 16 16 17 18 18 18 18 19 24 26 26 27 29 33 34 32 32 27 21 21 24 24 22 21 21 21 21 20 17 16 18 20 23 23 23 25 25 25 26 27 27 25
17 17 17 17 18 18 19 22 25 26 26 27 26 26 27 28 28 26 24 22 23 23 22 21 19 19 19 18 17 18 20 19 20 21 21 23 23 24 25 25 26 26 26
18 18 18 18 19 20 23 25 26 27 28 27 27 26 28 27 27 25 24 22 24 22 20 20 19 19 18 16 15 18 18 19 21 20 23 21 20 21 21 22 22 24 23
18 18 19 20 22 24 26 26 27 28 27 27 26 27 27 28 27 25 23 23 23 23 22 20 18 18 17 16 14 15 16 17 20 20 19 18 18 18 20 20 20 20 21

GFSMW_sfc_30mbdewp_030.txt.gz
Dewpoint
44 45 46 46 44 45 45 47 46 46 45 45 43 43 43 44 45 44 45 44 43 42 41 41 41 41 41 43 43 43 40 42 43 43 41 43 42 43 42 44 46 47 48
43 43 44 44 45 45 44 44 43 42 43 44 44 44 44 44 43 43 43 42 40 39 37 38 38 39 42 41 41 43 43 44 42 40 41 39 38 41 36 41 44 42 41
42 42 43 44 43 42 42 42 42 42 43 43 43 44 44 43 42 42 41 40 38 38 38 37 37 38 40 40 42 42 41 41 40 40 35 33 33 34 36 32 39 38 38
43 43 43 43 42 42 42 42 42 43 43 44 43 42 42 40 42 41 40 39 38 37 37 37 38 40 42 43 43 41 40 39 36 39 38 38 37 33 30 34 32 35 33
42 43 43 43 43 42 42 42 42 43 44 44 44 43 41 43 42 41 38 36 37 36 37 40 41 42 42 42 41 40 40 39 38 37 37 35 34 36 33 30 32 32 33
42 43 44 44 43 44 43 43 43 42 44 44 43 43 42 41 39 37 35 36 36 35 39 41 41 42 41 41 40 40 39 39 38 37 36 34 33 31 31 31 31 31 32
40 42 42 43 44 43 43 43 42 42 42 42 41 41 40 39 37 35 34 34 34 35 38 40 40 41 41 39 40 39 38 38 38 37 36 36 35 36 34 34 33 31 32
38 40 40 41 41 41 41 41 40 41 42 42 39 40 40 37 36 35 36 36 36 36 37 39 38 38 38 39 39 39 38 38 37 36 37 37 38 37 37 35 34 31 32
36 38 38 39 40 40 40 37 38 40 38 38 35 35 38 37 35 36 37 37 36 36 37 37 37 38 39 39 38 37 37 37 36 36 35 35 36 35 36 34 35 31 28
36 37 38 38 39 40 39 38 37 35 34 33 33 32 35 37 36 37 36 35 35 36 36 37 38 38 38 38 37 36 35 34 34 34 34 31 30 31 32 33 32 33 32
36 37 37 36 36 36 35 36 35 33 31 31 31 34 36 36 36 34 34 34 35 34 35 35 33 36 37 37 36 35 35 32 28 25 23 22 23 23 23 25 25 26 27
36 36 36 36 35 34 33 35 34 32 30 30 29 29 35 36 34 33 32 33 32 34 34 32 25 25 26 27 27 27 25 22 22 22 22 21 20 21 22 23 23 23 24
36 36 35 34 34 33 32 31 33 30 30 29 28 28 29 34 33 32 33 34 34 33 31 25 22 23 24 24 25 24 23 22 22 22 22 22 22 21 21 22 23 25 24
36 35 35 34 34 33 29 28 31 32 31 31 28 28 29 30 32 33 33 34 35 35 28 23 23 23 24 23 22 22 21 22 23 23 23 22 22 22 22 24 25 24 23
36 35 35 35 34 31 27 26 26 28 28 27 29 32 32 32 32 32 34 36 36 34 32 23 22 24 23 22 21 22 23 23 23 23 22 20 21 18 20 23 23 25 23
35 35 33 32 31 29 27 25 25 24 25 30 31 33 33 33 34 35 35 36 37 36 25 22 22 24 23 24 25 25 24 23 23 22 21 21 21 18 20 21 22 23 23
34 33 31 30 28 25 24 22 22 22 23 29 31 33 33 34 34 35 36 36 36 29 24 24 25 25 23 26 27 29 26 25 24 23 22 22 21 21 21 22 23 23 24
32 31 25 23 23 23 22 21 20 20 24 28 31 32 33 33 33 34 35 33 29 31 31 26 26 25 25 27 28 29 28 26 25 24 23 22 21 21 21 22 25 25 25
28 19 18 20 19 19 19 20 19 19 25 28 29 29 32 34 34 32 31 31 33 33 27 27 24 24 25 27 27 26 24 22 21 22 21 20 19 20 22 25 22 25 23
17 16 16 17 17 18 19 20 19 22 26 27 28 30 33 32 34 34 34 34 34 27 27 25 24 25 22 22 23 21 23 20 20 20 19 19 19 22 23 24 23 22 21
17 17 17 17 18 19 20 20 23 25 27 28 28 28 29 31 34 34 33 32 26 25 23 22 23 22 21 20 19 17 17 19 19 18 18 20 21 25 24 24 24 24 24
18 18 18 18 20 21 22 24 25 26 27 28 28 27 28 29 33 32 32 27 24 23 22 19 19 20 20 18 17 17 17 17 18 19 20 22 23 22 24 24 25 24 25
17 18 19 20 21 23 26 26 26 27 28 28 27 27 27 29 28 26 23 23 23 22 21 20 18 19 19 17 18 19 18 19 20 21 23 20 20 21 23 23 23 24 22
19 20 21 22 23 27 28 28 28 28 28 27 26 27 24 26 26 23 23 22 22 21 21 20 19 18 17 16 18 20 18 19 21 21 21 19 19 20 21 21 21 22 22
22 23 23 25 26 28 29 29 29 29 28 28 26 25 23 26 26 25 23 23 23 22 22 21 19 18 16 16 19 20 18 16 19 16 17 16 16 16 16 16 18 20 21
23 25 26 26 29 29 29 29 31 30 29 28 27 25 22 26 26 25 23 24 25 26 26 25 20 19 19 19 19 18 15 14 16 15 15 14 15 15 15 15 15 16 17

GFSMW_sfc_30mbdewp_033.txt.gz
Dewpoint
45 46 47 46 48 50 51 51 49 48 46 46 46 44 42 43 43 41 40 39 39 38 37 36 36 38 38 40 40 41 40 42 41 41 39 41 42 39 35 37 43 40 40
43 44 46 46 47 46 44 42 42 42 43 43 44 43 43 43 41 41 40 39 38 37 36 35 35 37 38 39 39 42 42 43 40 37 38 32 32 34 32 35 39 37 38
42 44 45 45 44 42 42 41 41 41 42 43 44 44 44 44 41 40 39 39 38 38 37 37 39 40 41 41 42 42 40 40 39 39 34 30 29 32 33 30 34 35 34
44 45 43 42 42 42 43 42 42 43 43 43 42 41 40 39 42 41 39 37 37 36 38 40 41 42 42 41 42 40 39 38 37 37 38 37 37 30 29 32 31 33 33
42 42 42 42 42 42 42 42 43 44 45 44 44 42 41 42 41 38 36 36 35 36 40 41 40 40 41 41 40 40 39 38 37 37 36 35 34 35 32 29 30 31 32
42 43 43 43 43 43 43 42 42 43 44 43 43 42 42 40 38 36 35 35 35 36 40 40 41 41 41 40 40 39 38 37 37 37 36 35 34 32 32 30 30 31 32
42 43 43 43 44 43 43 42 42 42 42 42 41 41 40 38 36 34 33 34 34 35 36 38 38 39 40 39 39 38 38 37 36 36 36 36 36 36 36 34 32 31 33
40 42 42 42 41 41 41 41 42 41 41 39 39 40 38 36 35 35 35 35 35 35 36 37 38 37 38 38 38 38 37 37 36 36 35 35 35 37 36 32 32 28 30
37 39 39 40 40 40 38 38 40 39 40 37 36 38 38 36 35 35 36 36 36 36 36 37 37 37 38 38 38 37 36 36 34 33 34 34 33 30 32 32 32 31 26
38 38 38 38 39 39 37 38 39 36 33 32 32 32 33 36 36 36 36 37 36 35 36 37 37 38 38 37 37 36 35 34 33 33 31 25 25 24 23 24 25 27 28
37 36 36 35 35 35 34 36 34 33 32 32 31 31 33 36 36 36 36 36 35 35 35 35 34 33 34 34 34 32 33 29 24 23 22 21 22 22 22 22 23 23 24
36 36 35 35 34 33 32 35 34 33 32 30 30 31 33 36 36 36 35 34 33 34 35 33 29 25 27 26 24 24 24 22 21 22 22 22 22 21 22 21 22 22 23
36 35 34 34 33 33 31 30 30 33 31 31 31 29 29 30 31 33 33 33 35 35 35 34 34 29 25 24 24 24 23 22 22 22 23 22 22 20 21 22 23 24 25
35 35 34 34 34 33 29 28 28 30 29 28 29 30 31 31 31 32 33 34 35 35 36 37 32 30 26 25 23 22 21 22 23 23 23 23 21 20 21 20 23 24 25
35 35 33 33 32 31 27 25 25 25 26 28 30 31 32 32 32 32 34 35 36 36 37 36 35 26 25 22 21 22 23 23 23 23 23 23 22 22 21 19 19 20 21
34 33 32 29 27 24 23 23 22 22 25 30 30 32 32 33 34 34 34 35 35 36 37 30 25 26 23 24 25 26 26 25 24 24 24 23 23 22 21 20 20 21 22
33 33 26 24 23 22 22 20 20 21 22 28 30 32 33 32 32 33 33 34 35 35 29 30 28 25 24 25 28 28 28 26 26 25 23 22 20 20 21 21 21 22 23
33 23 21 20 21 21 19 20 20 20 25 27 29 30 29 32 32 33 33 30 31 33 33 30 26 24 25 28 28 26 23 22 22 21 21 21 20 20 19 22 24 24 22
24 17 18 19 18 17 19 20 20 20 25 28 28 28 30 32 32 33 32 33 33 32 27 26 23 23 23 23 24 23 22 20 19 20 20 19 19 21 23 24 22 22 22
16 16 17 18 18 19 20 20 19 23 26 27 27 29 28 30 30 33 32 33 32 28 26 23 24 23 19 21 19 18 18 17 19 18 18 19 20 23 25 24 23 21 21
17 18 18 18 19 20 21 21 23 25 26 28 28 28 27 28 29 33 31 32 30 26 23 22 23 21 20 18 18 18 17 18 18 18 19 20 22 20 23 24 23 23 24
17 18 19 20 22 22 23 24 25 27 27 28 28 27 27 29 29 32 31 26 25 23 22 19 19 20 19 18 19 19 18 18 19 19 20 22 18 20 22 22 23 23 23
18 20 20 22 24 25 26 27 27 28 28 28 27 27 26 26 28 25 24 23 23 21 21 21 18 18 20 18 19 20 20 19 20 19 18 17 17 18 20 20 22 22 21
20 22 23 24 24 26 28 29 29 29 28 28 27 27 25 24 27 24 23 22 22 21 21 20 20 19 18 17 18 21 19 18 18 16 17 16 17 17 17 17 19 20 20
22 24 25 25 26 29 28 29 30 30 28 28 28 27 26 24 26 26 24 23 23 22 22 22 21 19 18 17 21 19 17 15 16 14 14 14 14 14 14 14 15 16 16
24 25 25 27 29 28 28 29 31 30 28 28 29 28 26 23 25 24 23 23 25 26 26 26 22 19 20 21 19 18 15 13 12 13 13 12 12 12 13 13 13 14 13

GFSMW_sfc_30mbdewp_039.txt.gz
Dewpoint
49 52 54 56 58 59 59 58 57 57 53 49 47 44 44 42 41 41 42 41 40 40 40 38 38 38 36 39 41 39 38 35 39 37 29 31 41 37 34 33 33 34 33
50 51 52 54 56 57 58 58 54 53 50 46 45 44 43 42 41 40 41 40 39 39 38 39 38 38 33 35 37 38 33 34 39 33 29 22 24 33 32 32 33 36 33
47 47 48 49 51 52 53 54 53 50 48 46 45 45 44 42 40 40 39 38 38 38 39 39 38 38 37 34 36 38 38 32 36 38 32 24 20 29 28 29 33 31 32
46 44 42 42 43 43 44 44 45 45 45 45 45 44 42 41 43 41 39 37 38 38 39 39 40 39 39 37 36 38 39 38 33 34 34 36 34 28 26 28 29 29 29
44 42 41 42 43 44 44 44 45 45 46 46 45 44 44 43 41 39 39 39 38 38 40 40 40 39 39 39 40 39 39 39 36 33 32 32 32 31 29 26 24 27 31
43 42 42 43 43 45 45 45 44 44 45 45 45 45 44 42 40 39 38 37 37 37 38 39 40 40 40 40 39 40 40 38 37 35 34 31 29 28 27 27 25 26 28
42 42 42 42 42 43 43 44 44 43 44 44 44 44 43 42 41 39 37 36 34 34 35 38 38 38 39 40 40 39 39 37 36 36 34 34 33 33 34 28 23 25 23
42 42 43 43 44 45 44 44 43 42 42 42 42 42 41 39 38 37 37 37 36 36 38 38 38 38 39 39 39 39 39 37 36 35 34 33 33 33 31 27 25 21 19
42 43 44 44 43 42 42 44 42 42 40 40 41 40 40 39 38 38 38 38 38 37 37 38 38 37 38 39 39 37 35 34 33 35 35 34 33 33 28 26 24 24 20
40 41 41 41 41 39 39 41 41 40 40 37 36 35 35 35 37 38 37 37 37 36 36 36 37 37 38 38 36 35 33 33 33 33 32 28 27 26 26 25 25 24 22
39 38 37 37 36 35 37 38 38 35 35 34 34 34 34 34 35 34 33 33 34 33 33 34 35 36 35 33 32 31 29 29 28 26 25 24 24 23 23 23 21 19 18
36 35 35 34 34 33 36 36 35 35 34 33 33 31 32 33 31 30 31 33 33 33 34 35 35 34 35 34 34 35 27 25 24 24 23 23 23 23 22 21 19 18 18
35 34 34 33 34 32 31 31 32 30 28 28 27 31 32 31 30 31 33 32 31 31 32 36 36 36 35 35 33 28 26 24 23 24 24 23 23 22 21 20 19 18 19
35 33 34 33 34 31 29 26 27 26 25 25 28 31 31 32 32 33 32 31 32 32 32 36 37 36 35 33 27 24 23 25 26 26 24 24 23 22 21 21 21 21 20
34 34 33 32 31 28 27 25 24 24 24 24 29 30 33 33 32 30 32 31 33 32 33 35 36 31 27 24 24 25 27 26 24 23 22 21 21 21 20 18 18 18 17
34 34 32 29 26 24 23 22 21 23 25 24 29 32 33 31 30 31 31 32 32 30 31 30 28 28 26 28 30 27 23 21 18 16 14 14 15 15 18 18 19 20 18
34 33 28 25 24 22 21 20 21 23 23 24 29 30 30 29 29 30 30 31 32 31 32 32 32 28 27 28 27 25 20 18 15 14 14 14 14 17 17 18 19 20 21
33 32 25 23 22 21 20 21 21 22 22 27 28 28 28 29 29 28 28 31 31 32 34 32 26 24 25 24 23 22 18 16 15 15 15 15 16 17 19 22 20 18 17
34 28 23 21 21 19 20 21 21 21 24 26 27 27 29 28 27 27 29 30 29 31 31 28 24 22 20 22 20 19 19 18 17 17 16 17 16 19 20 20 20 17 16
25 20 20 19 20 20 22 22 21 23 25 27 28 28 29 28 27 28 28 29 31 30 31 26 23 22 20 20 19 19 20 20 18 17 16 17 18 19 19 20 19 18 17
17 19 19 19 21 23 23 22 23 25 27 28 28 28 29 28 27 27 28 30 31 30 29 25 24 22 21 20 19 19 20 19 18 16 15 15 17 16 17 18 18 20 20
19 19 20 20 23 25 25 24 25 27 29 29 29 28 28 27 26 26 27 29 27 26 25 25 24 23 23 21 20 19 21 20 17 16 15 15 15 15 15 15 16 17 17
19 21 20 22 24 25 27 27 28 29 28 29 29 28 28 28 26 25 25 25 26 26 24 22 22 21 23 23 21 20 22 19 17 17 14 15 14 13 12 13 15 15 15
20 22 22 22 23 26 29 28 28 29 29 29 29 27 26 28 28 25 25 23 24 24 23 22 22 22 22 23 21 20 21 18 17 15 13 14 13 12 13 11 12 12 10
23 23 23 24 24 28 28 27 27 28 27 28 28 28 28 29 29 25 23 23 25 26 23 22 23 24 22 23 21 22 20 18 16 13 12 11 11 9 9 10 9 7 5
22 24 25 25 26 27 26 26 27 27 27 26 27 28 28 28 28 25 23 25 26 25 25 26 26 26 25 23 23 22 18 16 14 11 11 10 11 10 8 9 8 7 4

GFSMW_sfc_30mbdewp_042.txt.gz
Dewpoint
49 53 55 56 57 59 59 58 58 59 59 56 52 46 44 43 43 43 43 43 42 43 42 38 35 32 31 34 34 32 29 28 32 32 24 23 25 36 34 30 30 29 31
51 54 56 56 57 57 58 58 58 58 56 52 47 45 44 43 42 42 43 42 42 40 36 35 32 33 31 32 33 34 31 27 28 33 29 19 19 20 30 28 29 30 31
51 54 55 56 57 57 57 56 54 53 49 46 46 45 45 43 41 42 41 41 40 37 35 35 34 34 33 31 33 33 32 29 28 30 30 26 20 23 25 26 26 28 28
48 48 47 50 51 52 51 46 47 47 48 47 44 43 40 40 43 43 41 40 37 35 34 35 36 36 35 35 33 31 34 32 29 27 27 29 29 29 27 26 24 23 23
44 40 39 41 42 45 45 45 45 44 45 46 45 45 44 43 43 42 42 38 37 35 34 35 36 36 35 35 36 36 35 33 31 30 29 28 27 26 27 27 22 20 21
41 38 39 40 42 45 46 45 44 45 46 46 46 46 44 41 39 38 35 33 33 32 33 35 35 36 36 36 35 36 35 34 33 32 31 30 28 24 25 26 24 23 20
40 39 40 41 42 44 45 46 44 44 46 46 44 43 41 38 34 33 30 31 30 31 32 35 35 34 33 36 36 35 33 34 33 31 31 31 31 29 29 28 25 19 18
39 39 40 41 42 44 44 44 43 43 43 42 41 40 36 33 32 34 35 34 34 35 37 37 36 33 32 33 34 35 34 34 32 33 31 29 27 27 26 23 19 19 17
40 40 42 43 43 44 46 45 43 42 41 40 40 39 37 36 35 36 37 36 37 33 28 28 27 27 29 32 34 34 33 32 32 32 30 26 25 23 22 21 21 21 20
40 41 42 44 44 43 43 44 42 40 39 38 37 35 34 34 35 36 35 31 26 24 25 25 26 27 28 30 32 32 29 30 31 28 26 24 21 22 22 19 18 20 20
41 42 42 43 42 39 39 40 39 37 36 35 35 35 32 32 32 27 25 25 26 25 25 26 28 28 29 31 33 33 30 32 31 27 26 24 24 23 22 19 18 17 16
40 41 40 39 37 36 36 36 36 35 35 34 32 29 27 27 24 23 25 27 27 27 27 27 28 29 31 35 35 34 35 31 26 25 24 23 23 23 20 18 18 17 17
39 38 37 36 35 34 34 33 34 32 30 27 24 24 24 24 23 25 27 28 28 27 28 28 29 30 32 32 34 34 28 26 25 25 25 24 22 20 19 19 17 16 16
37 36 35 35 33 32 32 30 31 28 25 21 20 21 23 26 27 28 28 28 28 29 29 29 30 34 33 30 29 25 25 26 25 26 24 22 21 19 18 16 15 14 15
36 35 34 34 32 31 30 31 26 23 21 19 19 21 27 30 29 28 29 29 29 29 29 29 31 32 28 24 27 27 26 25 23 21 18 16 16 17 18 17 16 16 15
36 35 34 32 30 29 28 25 21 21 22 20 20 24 29 29 27 28 28 28 29 29 28 28 29 29 28 30 28 24 23 21 18 16 13 13 14 15 17 19 19 19 18
35 35 32 30 27 26 22 20 20 22 21 20 21 27 28 26 26 27 27 27 28 29 30 30 31 31 29 27 26 24 20 19 17 15 14 13 13 16 16 17 19 22 25
35 33 30 27 24 21 20 21 20 21 20 20 23 25 25 25 26 27 27 28 28 30 30 30 30 28 26 24 22 21 20 19 18 16 16 15 15 15 18 18 18 19 20
35 32 27 24 21 20 21 20 20 19 19 20 23 24 25 25 26 26 26 28 28 29 30 29 29 27 24 22 20 20 20 20 20 17 16 16 15 17 18 18 20 19 16
33 28 23 21 20 21 21 20 18 18 19 22 24 25 25 26 26 26 26 27 27 27 28 29 28 25 24 21 20 20 21 21 20 17 16 16 17 16 17 17 18 18 17
27 22 19 21 21 22 22 19 16 19 22 25 26 25 25 26 26 25 25 25 27 27 28 29 27 26 24 23 20 20 21 21 19 17 16 15 16 15 15 15 16 17 16
19 22 21 21 22 22 21 15 17 20 25 26 25 25 26 26 25 25 25 25 25 24 25 28 28 26 25 23 22 21 20 21 20 18 17 17 14 14 14 14 14 15 16
22 21 21 21 22 21 21 20 21 24 24 25 25 26 27 25 24 25 25 23 24 24 24 24 24 23 23 23 24 22 20 22 20 18 17 15 14 12 12 12 13 14 13
26 29 23 20 18 22 24 23 24 25 24 25 26 26 25 24 24 24 24 23 23 23 22 21 22 22 22 22 23 22 21 22 20 18 16 15 15 13 11 12 11 11 9
28 24 21 19 19 21 24 24 24 25 25 25 25 25 25 25 25 24 24 23 23 23 21 21 23 25 24 25 24 22 21 21 19 17 16 15 13 11 9 10 10 10 7
23 22 23 22 22 23 23 23 25 25 25 25 25 25 26 25 26 26 24 25 24 24 25 25 23 23 24 26 25 23 23 20 17 16 16 15 16 14 10 9 10 10 8